Regional Weather Roundup
Issued by NWS Sterling, VA

Home | Current Version | Previous Version | Text Only | Print | Product List | Glossary On
Versions: 1 2 3 4 5 6 7 8 9 10 11 12 13 14 15 16 17 18 19 20 21 22 23 24 25 26 27 28 29 30 31 32 33 34 35 36 37 38 39 40 41 42 43 44 45 46 47 48 49 50
000
ASUS41 KLWX 290611
RWRLWX

REGIONAL WEATHER ROUNDUP
NATIONAL WEATHER SERVICE BALTIMORE MD/WASHINGTON DC
200 AM EDT WED MAR 29 2017

Note: "FAIR" indicates few or no clouds below 12,000 feet
with no significant weather and/or obstructions to visibility.
 TC=TEMPERATURE CELSIUS

 * =Non NWS site. Station does not report precipitation (e.g. rain,
    snow, etc.), thunder, or fog.

DCZ001-MDZ009-015-VAZ040>042-051-053>054-290700-
WASHINGTON METRO

CITY           SKY/WX    TMP DP  RH WIND       PRES   REMARKS
WASHINGTON NAT CLOUDY    61  54  77 N8        29.98S
DULLES         CLOUDY    59  55  87 NW6       29.98S
ANDREWS AFB    CLOUDY    59  52  78 N5        29.96S
FT BELVOIR     CLOUDY    60  55  83 CALM      29.97S
QUANTICO       CLOUDY    62  57  83 N8        29.98S
COLLEGE PARK*  CLOUDY    59  52  76 N5        29.97R
LEESBURG*      CLOUDY    59  59 100 N6        30.00S
MANASSAS*        N/A    N/A N/A N/A N6        29.99S

$$

MDZ006>007-011-014-290700-
BALTIMORE METRO

CITY           SKY/WX    TMP DP  RH WIND       PRES   REMARKS
BWI AIRPORT    CLOUDY    59  54  83 N6        29.96S
MD SCIENCE CTR   N/A     61  51  70 MISG      29.97S
MARTIN STATE   CLOUDY    55  54  94 CALM      29.98S
ANNAPOLIS      CLOUDY    59  54  83 CALM      29.96S
FORT MEADE*    CLOUDY    59  52  77 CALM      29.99S

$$

MDZ012-015-019>023-290700-
MARYLAND EASTERN SHORE

CITY           SKY/WX    TMP DP  RH WIND       PRES   REMARKS
OCEAN CITY     CLEAR     53  50  89 N10       29.92F
SALISBURY      PTCLDY    54  53  97 N7        29.94R
BAY BRIDGE AP* MOCLDY    55  52  88 N5        29.96S FOG
CAMBRIDGE*     CLEAR     55  52  88 N7        29.95S
EASTON*        PTCLDY    56  52  84 N5        29.99S

$$

MDZ017>025-290700-
SOUTHERN MARYLAND

CITY           SKY/WX    TMP DP  RH WIND       PRES   REMARKS
PATUXENT RIVER CLOUDY    57  55  93 N9        29.95S
ST INIGOES     CLOUDY    59  53  80 N9        29.94S
LEONARDTOWN*   CLOUDY    55  52  88 CALM      29.97S

$$

MDZ003>005-290700-
NORTH CENTRAL MARYLAND

CITY           SKY/WX    TMP DP  RH WIND       PRES   REMARKS
FREDERICK*     CLOUDY    59  59 100 NE5       30.02R FOG
HAGERSTOWN APT CLOUDY    57  53  86 N5        30.01R
WESTMINSTER*   CLOUDY    55  52  88 N8        29.99R

$$

MDZ501>502-290700-
WESTERN MARYLAND

CITY           SKY/WX    TMP DP  RH WIND       PRES   REMARKS
OAKLAND*       FOG       41  41 100 NW7       30.06S VSB<1/4
CUMBERLAND*    MOCLDY    55  46  71 NW9G17    30.09R

$$

VAZ025>031-290700-
SHENANDOAH VALLEY

CITY           SKY/WX    TMP DP  RH WIND       PRES   REMARKS
WINCHESTER*    CLOUDY    55  50  82 NW9       30.01R
FRONT ROYAL*   CLOUDY    59  52  77 CALM      30.01R
LURAY*         CLOUDY    59  54  82 NW3       30.01R
NEW MARKET*    MOCLDY    52  49  87 NW3       30.02R
STAUNTON*      PTCLDY    55  51  83 NW6       30.03S
WAYNESBORO*    CLEAR     56  52  88 N10G17    30.00S

$$

WVZ021-048>050-054>055-290700-
EASTERN WEST VIRGINIA PANHANDLE

CITY           SKY/WX    TMP DP  RH WIND       PRES   REMARKS
MARTINSBURG    CLOUDY    58  50  75 N3        30.00R
PETERSBURG*    CLOUDY    58  50  74 N5        30.04F

$$

VAZ036>039-050-290700-
CENTRAL FOOTHILLS

CITY           SKY/WX    TMP DP  RH WIND       PRES   REMARKS
CHARLOTTESVILL CLEAR     60  53  77 NW3       29.98S
CULPEPER*      CLOUDY    60  56  86 CALM      30.00S
ORANGE*        CLEAR     59  54  82 N8        29.99S
GORDONSVILLE*  FOG       53  53 100 CALM      29.98R VSB 1/2
WARRENTON*     CLOUDY    60  54  80 N3        29.98S

$$

VAZ055>057-290700-
NORTH AND CENTRAL PIEDMONT

CITY           SKY/WX    TMP DP  RH WIND       PRES   REMARKS
FREDERICKSBRG* CLOUDY    63  58  82 N8        29.96S
STAFFORD*      RAIN      60  59  96 N6        30.02R

$$

NCZ024-NYZ072-PAZ021-071-VAZ022-071-290700-
OTHER REGIONAL OBSERVATIONS

CITY           SKY/WX    TMP DP  RH WIND       PRES   REMARKS
NEW YORK CITY  CLOUDY    45  43  93 N5        29.95F
PHILADELPHIA   CLOUDY    49  46  90 NW5       29.96S
PITTSBURGH     CLOUDY    45  42  89 N9        30.13R
ROANOKE        MOCLDY    57  50  77 NW7       30.03F
RICHMOND       MOCLDY    63  56  78 N12       29.95S
RALEIGH        PTCLDY    62  49  62 CALM      29.96F

$$

ANZ530>537-290700-
MARINE OBSERVATIONS

STATION/POSITION TIME  TEMP    WIND        PRES
                       AIR SEA DIR/SP/G
                 (UTC) (F)     (DEG/KT/KT) (MB)
THOMAS PT LIGHT  0600   55 47   30/  7/  8   N/A
BALT KEY BRIDGE  0548          330/  5/  5 1014.6S
COVE POINT       0548           10/ 10/ 13 1014.9S
LEWISETTA        0548      51  360/  5/  8 1013.8S
SOLOMONS ISLAND  0548      48  350/  5/  9   N/A
PINEY POINT      0548           30/ 10/ 12   N/A

$$




USA.gov is the U.S. government's official web portal to all federal, state and local government web resources and services.